Regional Weather Roundup
Issued by NWS

Home | Current Version | Previous Version | Text Only | Print | Product List | Glossary On
Versions: 1 2 3 4 5 6 7 8 9 10 11 12 13 14 15 16 17 18 19 20 21 22 23 24 25 26 27 28 29 30 31 32 33 34 35 36 37 38 39 40 41 42 43 44 45 46 47 48 49 50
000
ASUS43 KDTX 232210
RWRMI
MICHIGAN HOURLY REGIONAL WEATHER ROUNDUP
NATIONAL WEATHER SERVICE DETROIT/PONTIAC MI
600 PM EDT TUE MAY 23 2017

NOTE: "FAIR" INDICATES FEW OR NO CLOUDS BELOW 12,000 FEET WITH NO
SIGNIFICANT WEATHER AND/OR OBSTRUCTION TO VISIBILITY.

MIZ047>049-052>055-059>063-066>070-074>076-081>083-232300-
SOUTHEAST LOWER MICHIGAN

CITY           SKY/WX    TMP DP  RH WIND       PRES   REMARKS
ADRIAN         CLOUDY    63  55  75 N8        29.74F
ALMA           LGT RAIN  61  58  90 SW8       29.78S
ANN ARBOR      LGT RAIN  65  54  67 S7        29.75R
BAD AXE        CLOUDY    63  58  84 E8        29.77S
CARO           CLOUDY    66  53  62 SW6       29.75F
DETROIT CITY   MOSUNNY   70  47  43 SE6       29.74F
DETROIT        CLOUDY    71  48  43 S7        29.75S
FLINT          CLOUDY    65  52  62 W7        29.76F
GROSSE ILE     PTSUNNY   69  51  52 S5        29.73F
HILLSDALE      LGT RAIN  63  54  72 CALM      29.74F
HOWELL         CLOUDY    65  52  63 N5        29.76S

CITY           SKY/WX    TMP DP  RH WIND       PRES   REMARKS
JACKSON        CLOUDY    63  53  70 N7        29.76S
LAMBERTVILLE   CLOUDY    69  49  48 E6        29.73S
LANSING        CLOUDY    62  56  80 NW6       29.78S
LAPEER         PTSUNNY   67  51  55 N5        29.76F
MASON          CLOUDY    63  56  79 NW5       29.77S
MONROE         PTSUNNY   70  47  44 E8        29.73F
MT. CLEMENS    PTSUNNY   69  51  51 SE7       29.74S
PONTIAC        LGT RAIN  68  50  52 NW6       29.74F
PORT HOPE        N/A     54  52  93 E5        29.77F
PORT HURON     CLOUDY    68  48  49 NE6       29.76S
TRI CITIES     CLOUDY    62  57  83 SW5       29.77R
MIDLAND        CLOUDY    63  57  82 CALM      29.75F
TROY           CLOUDY    73  35  24 S3        29.76S
SAGINAW HB     CLOUDY    66  52  59 W9        29.76R
$$
MIZ043>046-050>051-056>058-064>065-071>073-077>080-232300-
SOUTHWEST LOWER MICHIGAN

CITY           SKY/WX    TMP DP  RH WIND       PRES   REMARKS
BATTLE CREEK   LGT RAIN  61  57  87 NE6       29.77F
BENTON HARBOR  CLOUDY    63  56  78 E7        29.73F
BIG RAPIDS     CLOUDY    63  48  59 SW10G18   29.74S
COLDWATER      CLOUDY    61  58  88 NE8       29.75S
FREMONT        CLOUDY    61  48  61 S9        29.76S
HOLLAND        CLOUDY    61  55  81 E3        29.75F
GRAND RAPIDS   LGT RAIN  60  57  89 CALM      29.77F
IONIA          RAIN      61  56  83 SW6       29.77F
KALAMAZOO      LGT RAIN  60  53  77 N6        29.77S
LUDINGTON      PTSUNNY   56  52  85 SW8       29.75R
MARSHALL       DRIZZLE   60  59  96 CALM      29.76F
MOUNT PLEASANT MOSUNNY   64  51  62 SW12G18   29.75S
MUSKEGON       LGT RAIN  61  54  77 S7        29.76F
SOUTH HAVEN    DRIZZLE   62  58  86 E7        29.74F
$$
MIZ016>042-232300-
NORTHERN LOWER MICHIGAN

CITY           SKY/WX    TMP DP  RH WIND       PRES   REMARKS
ALPENA         CLOUDY    56  48  74 SE7       29.79R
BEAVER ISLAND  MOSUNNY   60  45  58 NE7       29.78F
BELLAIRE       PTSUNNY   65  47  52 N7        29.73F
CADILLAC       HVY RAIN  55  54  94 E7        29.75R
CHARLEVOIX     MOSUNNY   57  45  64 N8        29.79F
FRANKFORT      PTSUNNY   63  49  59 N6        29.74S
GAYLORD        RAIN      59  51  75 VRB6      29.76R
GRAYLING       PTSUNNY   61  54  78 E10       29.76S
HARBOR SPRINGS PTSUNNY   63  45  51 NE9       29.76S
HOUGHTON LAKE  TSTM      59  56  89 N12       29.74S
MANISTEE       MOSUNNY   60  53  77 W8        29.74S
OSCODA         CLOUDY    53  50  89 NE5       29.78S
PELLSTON       CLOUDY    62  43  49 NE9       29.78S
ROGERS CITY    PTSUNNY   51  47  85 CALM      29.80S
TRAVERSE CITY  CLOUDY    60  46  59 NE8       29.73F
$$
MIZ007>008-015-232300-
EASTERN UPPER MICHIGAN

CITY           SKY/WX    TMP DP  RH WIND       PRES   REMARKS
KINROSS        MOSUNNY   58  43  57 N13       29.79S
MACKINAC ISLAN MOSUNNY   57  44  63 E7        29.78S
NEWBERRY       CLOUDY    58  47  66 N8        29.79S
S. S. MARIE    MOSUNNY   62  45  53 W10       29.78S
MUNISING         N/A     48  43  82 N6        29.83S
$$
MIZ004>006-011>014-085-232300-
CENTRAL UPPER MICHIGAN

CITY           SKY/WX    TMP DP  RH WIND       PRES   REMARKS
MANISTIQUE     CLOUDY    61  44  52 N8        29.78S
ESCANABA       LGT RAIN  53  51  93 W5        29.79F
MENOMINEE      CLOUDY    51  47  86 N3        29.79F
SAWYER-GWINN   CLOUDY    52  43  71 NE12      29.83S
$$
MIZ001>003-009>011-084-232300-
WESTERN UPPER MICHIGAN

CITY           SKY/WX    TMP DP  RH WIND       PRES   REMARKS
IRON MOUNTAIN  CLOUDY    60  42  51 VRB3      29.78S
HOUGHTON       CLOUDY    50  42  74 E7        29.85S
COPPER HARBOR    N/A     45  42  89 CALM      29.87S
IRONWOOD       PTSUNNY   53  44  71 N10G16    29.86R
$$

ABBREVIATIONS USED IN REMARKS
   TC - TEMPERATURE IN CELSIUS
  WCI - WIND CHILL INDEX
   HX - HEAT INDEX
  VSB - VISIBILITY





USA.gov is the U.S. government's official web portal to all federal, state and local government web resources and services.